GW1062 Weather Reports


time (UTC)temp
F
wind
direction
speed
knots
gust
knots
rain 1hr
in
rain 24hr
in
rain mn
in
humidity
%
barometer
mb
20260504081504 56 360 4.3 8.7 0.00 0.00 0.00 50 965.0
20260504044539 57 360 0.0 2.6 0.00 0.00 0.00 44 967.4
20260504043030 58 360 0.9 3.5 0.00 0.00 0.00 44 967.6
20260504041530 57 360 0.9 3.5 0.00 0.00 0.00 44 967.8
20260504040027 56 360 0.0 1.7 0.00 0.00 0.00 45 967.9
20260504034526 57 360 0.0 2.6 0.00 0.00 0.00 45 968.1
20260504033025 61 360 0.0 0.9 0.00 0.00 0.00 39 968.3
20260504031525 62 360 0.0 2.6 0.00 0.00 0.00 37 968.4
20260504030036 62 360 0.9 2.6 0.00 0.00 0.00 37 968.4
20260504024525 62 360 0.0 1.7 0.00 0.00 0.00 37 968.5
20260504023024 64 360 1.7 3.5 0.00 0.00 0.00 35 968.2
20260504021527 64 360 0.9 2.6 0.00 0.00 0.00 35 968.1
20260504020022 64 360 0.0 1.7 0.00 0.00 0.00 34 968.2
20260504014522 65 360 0.0 2.6 0.00 0.00 0.00 34 968.1
20260504013022 65 360 1.7 4.3 0.00 0.00 0.00 34 968.2
20260504011523 66 6 2.6 7.0 0.00 0.00 0.00 33 968.3
20260504010022 68 5 6.1 7.8 0.00 0.00 0.00 31 968.2
20260504004522 69 5 4.3 7.8 0.00 0.00 0.00 30 968.2
20260504003019 70 6 1.7 7.8 0.00 0.00 0.00 29 968.3
20260504001518 71 5 4.3 11.3 0.00 0.00 0.00 28 968.2
20260504000017 71 5 4.3 10.4 0.00 0.00 0.00 28 968.3
20260503234526 72 6 9.6 17.4 0.00 0.00 0.00 26 968.3
20260503233015 72 5 7.8 13.9 0.00 0.00 0.00 26 968.4
20260503231516 72 5 7.0 14.8 0.00 0.00 0.00 28 968.3
20260503230017 73 5 5.2 13.0 0.00 0.00 0.00 27 968.3
20260503224515 73 4 12.2 18.2 0.00 0.00 0.00 26 968.3
20260503223012 73 6 8.7 14.8 0.00 0.00 0.00 27 968.2
20260503221511 73 6 7.0 17.4 0.00 0.00 0.00 27 968.2
20260503220028 73 5 9.6 16.5 0.00 0.00 0.00 26 968.2
20260503214509 73 5 8.7 13.9 0.00 0.00 0.00 26 968.4
20260503213011 74 5 7.0 13.0 0.00 0.00 0.00 27 968.4
20260503211506 73 6 7.8 16.5 0.00 0.00 0.00 27 968.1
20260503210005 73 6 7.0 13.9 0.00 0.00 0.00 28 968.3
20260503204504 74 5 5.2 11.3 0.00 0.00 0.00 26 968.5
20260503203105 73 6 7.8 17.4 0.00 0.00 0.00 27 968.5
20260503201559 73 6 3.5 12.2 0.00 0.00 0.00 31 968.4
20260503194556 72 6 5.2 19.1 0.00 0.00 0.00 33 968.6
20260503193101 72 6 7.8 15.6 0.00 0.00 0.00 31 968.5
20260503191552 72 6 8.7 16.5 0.00 0.00 0.00 32 968.6
20260503190057 71 6 11.3 23.5 0.00 0.00 0.00 31 968.6
20260503184603 71 5 7.8 14.8 0.00 0.00 0.00 32 968.8
20260503183057 70 6 10.4 16.5 0.00 0.00 0.00 34 968.6
20260503181545 70 6 8.7 19.1 0.00 0.00 0.00 35 968.7
20260503180047 71 6 8.7 14.8 0.00 0.00 0.00 37 968.8
20260503174543 70 5 7.8 17.4 0.00 0.00 0.00 36 968.8
20260503173040 69 6 13.0 22.6 0.00 0.00 0.00 35 968.8
20260503171537 69 6 7.8 18.2 0.00 0.00 0.00 38 968.9